STARLINK-32591, 61718

Orbit data source: Space-Track

STARLINK-32591, 61718 is a payload satellite owned by SpaceX/Seattle (US) in LEO that was launched on Wed, 30 Oct 2024 UTC via an FALCON 9 launch vehicle from the Air Force Eastern Test Range (AFETR). Payload-class satellites include a variety of spacecraft equipped with specific instruments for various scientific and technological missions. These include communications satellites like Starlink; space stations such as the ISS; scientific satellites like the Hubble; Earth observation satellites from companies like Planet Labs, Umbra, and HawkEye 360; GPS; miniature CubeSats for education and research; and military/defense satellites.

Loading next visibility...
Identifier
61718, 2024-196M
Orbit
LEO
Country
Flag of USUS
Related business
Manufacturer
SpaceX/Seattle
Mission
Operational Commercial Communications
Bus & Motor
STARLINK V2M, Unknown motor
Mass
730 kg wet, ~700 kg dry
Launch date (UTC)
2024-10-30 (1 year ago)
Launch vehicle
FALCON 9
Launch site
Air Force Eastern Test Range (AFETR)
Object type
Payload
Rocket body
Debris
Shape & HBR
Box + 2 Pan, 17.7 m
Radar Cross Section
33.884 m², Large (>1 m²)

Expand to show TLE details & history
Last TLE update: 20 hours ago

TLE from 20 hours ago
0 STARLINK-32591
1 61718U 24196M   26036.74500555  .00001316  00000-0  56548-4 0  9996
2 61718  53.1587 237.0422 0001224 105.5440 254.5696 15.30195627 72445
Epoch: 2026-02-05T17:52Z
TLE epoch observation values (Epoch: 2026-02-05T17:52:48.479Z)
Latitude
-0.00002°
Longitude
-167.05264°
Altitude
476.351 km
Speed
7.629 km/s
True Right ascension
15h 48m 10s
True Declination
0° 00' 00"
Sunlit
Object was in daylight at epoch
Visualization orbit readout
Latitude
Unknown
Longitude
Unknown
Altitude
Unknown
Speed
Unknown
Apparent Right ascension
Unknown
Apparent Declination
Unknown
Sunlit
N/A
Visualization observer readout
Local Sidereal Time
15:29:22
Azimuth
Unknown
Elevation
Unknown
Doppler factor
Unknown
Orbital elements
Apogee altitude
476.324 km
Perigee altitude
474.646 km
Semi-major axis
6,853.622 km
Eccentricity
0.00012
Inclination
53.1587°
RAAN
237.0422°
Arg. of periapsis
105.544°
True anomaly
254.55608°
Mean anomaly
254.5696°
Eccentric anomaly
254.56284°
Mean motion
3.82528 °/min
Orbital period
94.11 mins
BSTAR
0.000056548
Loading maneuver chart data...
Computing Atmospheric mass density...
Loading historical data...
Loading historical data...
Loading historical data...
Loading historical data...
Loading historical data...
Loading historical data...
Loading historical data...

Documentation

Showing up to 5 results
|